DELKK EDAR-EDDC

Flight info

Callsign DELKK
Flight time 0h 26m
Altitude 1000
Route EDAR EDDC
Aircraft DA40/L-V/N

Departure

Time 2026-04-26 09:41
Airport Pirna-Pratzschwitz Airfield (EDAR)

Arrival

Time 2026-04-26 10:08
Airport Dresden Airport (EDDC)
Time Latitude Longitude Altitude Speed Heading
2026-04-26 09:37 50.97654 13.91402 417 ft 0 kts 233°
2026-04-26 09:38 50.97643 13.91397 419 ft 6 kts 172°
2026-04-26 09:38 50.97677 13.91452 420 ft 15 kts 12°
2026-04-26 09:39 50.97744 13.91452 420 ft 0 kts 302°
2026-04-26 09:40 50.97790 13.91340 421 ft 38 kts 300°
2026-04-26 09:40 50.97994 13.90737 468 ft 76 kts 298°
2026-04-26 09:41 50.98227 13.89972 668 ft 87 kts 290°
2026-04-26 09:41 50.97858 13.89241 888 ft 106 kts 195°
2026-04-26 09:41 50.97141 13.89120 1205 ft 110 kts 170°
2026-04-26 09:41 50.96672 13.89935 1515 ft 101 kts 105°
2026-04-26 09:42 50.96481 13.91087 1485 ft 117 kts 102°
2026-04-26 09:42 50.96138 13.92296 1493 ft 124 kts 115°
2026-04-26 09:42 50.95729 13.93530 1486 ft 129 kts 115°
2026-04-26 09:42 50.95315 13.94774 1663 ft 121 kts 115°
2026-04-26 09:43 50.94940 13.95886 1938 ft 113 kts 117°
2026-04-26 09:43 50.94541 13.97092 1984 ft 131 kts 115°
2026-04-26 09:43 50.94244 13.98434 1976 ft 129 kts 84°
2026-04-26 09:43 50.94495 13.99732 2000 ft 123 kts 67°
2026-04-26 09:44 50.94767 14.01011 1965 ft 118 kts 67°
2026-04-26 09:44 50.95022 14.02205 1987 ft 115 kts 67°
2026-04-26 09:44 50.95285 14.03445 1986 ft 121 kts 68°
2026-04-26 09:44 50.95555 14.04705 1988 ft 121 kts 68°
2026-04-26 09:45 50.95734 14.06048 1991 ft 126 kts 76°
2026-04-26 09:45 50.95881 14.07427 1993 ft 134 kts 76°
2026-04-26 09:45 50.95939 14.08785 1972 ft 117 kts 107°
2026-04-26 09:45 50.95495 14.09859 1990 ft 119 kts 123°
2026-04-26 09:46 50.95002 14.10955 1981 ft 127 kts 123°
2026-04-26 09:46 50.94460 14.12127 1979 ft 140 kts 124°
2026-04-26 09:46 50.93891 14.13320 2070 ft 134 kts 127°
2026-04-26 09:46 50.93210 14.14255 2031 ft 126 kts 151°
2026-04-26 09:47 50.92433 14.14899 1968 ft 126 kts 150°
2026-04-26 09:47 50.91751 14.15728 1853 ft 122 kts 124°
2026-04-26 09:47 50.91358 14.16897 1906 ft 121 kts 111°
2026-04-26 09:47 50.91011 14.18139 1790 ft 125 kts 109°
2026-04-26 09:48 50.90656 14.19377 1743 ft 124 kts 113°
2026-04-26 09:48 50.90271 14.20583 1776 ft 121 kts 118°
2026-04-26 09:48 50.89587 14.21003 1893 ft 115 kts 202°
2026-04-26 09:48 50.89184 14.20051 2011 ft 112 kts 277°
2026-04-26 09:49 50.89563 14.19049 2133 ft 109 kts 322°
2026-04-26 09:49 50.90126 14.18324 2235 ft 100 kts 323°
2026-04-26 09:49 50.90627 14.17574 2247 ft 102 kts 306°
2026-04-26 09:49 50.90934 14.16563 2203 ft 104 kts 299°
2026-04-26 09:50 50.91249 14.15568 2178 ft 97 kts 300°
2026-04-26 09:50 50.91540 14.14627 2166 ft 92 kts 300°
2026-04-26 09:50 50.91828 14.13701 2169 ft 98 kts 299°
2026-04-26 09:50 50.92155 14.12710 2181 ft 103 kts 301°
2026-04-26 09:51 50.92494 14.11701 2189 ft 105 kts 301°
2026-04-26 09:51 50.92841 14.10674 2190 ft 106 kts 301°
2026-04-26 09:51 50.93175 14.09650 2181 ft 103 kts 300°
2026-04-26 09:51 50.93501 14.08625 2239 ft 109 kts 300°
2026-04-26 09:52 50.93852 14.07547 2173 ft 105 kts 299°
2026-04-26 09:52 50.94538 14.05514 2163 ft 113 kts 302°
2026-04-26 09:52 50.94882 14.04418 2175 ft 104 kts 300°
2026-04-26 09:53 50.95129 14.03362 2159 ft 103 kts 289°
2026-04-26 09:53 50.95323 14.02300 2165 ft 98 kts 291°
2026-04-26 09:53 50.95520 14.01220 2067 ft 103 kts 290°
2026-04-26 09:53 50.95690 14.00124 2081 ft 105 kts 287°
2026-04-26 09:54 50.95863 13.98995 2016 ft 103 kts 287°
2026-04-26 09:54 50.96038 13.97936 1910 ft 97 kts 288°
2026-04-26 09:54 50.96201 13.96883 1654 ft 101 kts 287°
2026-04-26 09:54 50.96376 13.95789 1477 ft 104 kts 289°
2026-04-26 09:55 50.96565 13.94689 1267 ft 102 kts 295°
2026-04-26 09:55 50.96902 13.93744 1034 ft 92 kts 305°
2026-04-26 09:55 50.97230 13.92945 902 ft 79 kts 305°
2026-04-26 09:55 50.97498 13.92190 641 ft 77 kts 301°
2026-04-26 09:56 50.97755 13.91472 429 ft 71 kts 300°
2026-04-26 09:56 50.97961 13.90859 412 ft 72 kts 296°
2026-04-26 09:56 50.98182 13.90119 643 ft 77 kts 296°
2026-04-26 09:56 50.98420 13.89286 839 ft 86 kts 291°
2026-04-26 09:57 50.98268 13.88388 1125 ft 96 kts 229°
2026-04-26 09:57 50.97614 13.88312 1138 ft 101 kts 144°
2026-04-26 09:57 50.97138 13.89139 1072 ft 104 kts 126°
2026-04-26 09:57 50.96741 13.90079 1116 ft 102 kts 119°
2026-04-26 09:58 50.96412 13.91093 1160 ft 106 kts 109°
2026-04-26 09:58 50.96318 13.92179 1177 ft 93 kts 53°
2026-04-26 09:58 50.96800 13.92706 1033 ft 86 kts 20°
2026-04-26 09:58 50.97293 13.92675 787 ft 77 kts 312°
2026-04-26 09:59 50.97588 13.91989 572 ft 77 kts 301°
2026-04-26 09:59 50.97824 13.91250 421 ft 69 kts 299°
2026-04-26 09:59 50.98055 13.90573 472 ft 77 kts 298°
2026-04-26 09:59 50.98304 13.89814 693 ft 83 kts 300°
2026-04-26 10:00 50.98572 13.88973 921 ft 89 kts 299°
2026-04-26 10:00 50.98404 13.88058 1009 ft 109 kts 212°
2026-04-26 10:00 50.97679 13.88367 1136 ft 117 kts 133°
2026-04-26 10:00 50.97211 13.89428 1082 ft 118 kts 116°
2026-04-26 10:01 50.96829 13.90573 1030 ft 118 kts 112°
2026-04-26 10:01 50.96537 13.91747 1101 ft 105 kts 85°
2026-04-26 10:01 50.96904 13.92440 1175 ft 83 kts 19°
2026-04-26 10:01 50.97438 13.92389 728 ft 84 kts 324°
2026-04-26 10:02 50.97719 13.91629 469 ft 74 kts 301°
2026-04-26 10:02 50.97923 13.90987 413 ft 65 kts 298°
2026-04-26 10:02 50.98134 13.90262 616 ft 76 kts 298°
2026-04-26 10:02 50.98264 13.89363 743 ft 98 kts 256°
2026-04-26 10:03 50.97674 13.88957 1015 ft 111 kts 155°
2026-04-26 10:03 50.97168 13.89826 1187 ft 109 kts 121°
2026-04-26 10:03 50.96777 13.90865 1169 ft 109 kts 115°
2026-04-26 10:03 50.96494 13.91961 1094 ft 102 kts 100°
2026-04-26 10:04 50.96750 13.92747 991 ft 78 kts
2026-04-26 10:04 50.97267 13.92712 850 ft 73 kts 328°
2026-04-26 10:04 50.97572 13.92074 603 ft 74 kts 304°
2026-04-26 10:04 50.97800 13.91334 422 ft 71 kts 302°
2026-04-26 10:05 50.98014 13.90650 446 ft 77 kts 298°
2026-04-26 10:05 50.98231 13.89898 727 ft 77 kts 300°
2026-04-26 10:05 50.98485 13.89071 913 ft 90 kts 300°
2026-04-26 10:05 50.98484 13.88122 1183 ft 102 kts 232°
2026-04-26 10:06 50.97762 13.88002 1446 ft 116 kts 149°
2026-04-26 10:06 50.97194 13.88807 1499 ft 103 kts 130°
2026-04-26 10:06 50.96756 13.89735 1575 ft 106 kts 120°
2026-04-26 10:06 50.96385 13.90716 1452 ft 105 kts 114°
2026-04-26 10:07 50.96164 13.91767 1303 ft 95 kts 64°
2026-04-26 10:07 50.96636 13.92325 1102 ft 87 kts 19°
2026-04-26 10:07 50.97177 13.92550 929 ft 74 kts 347°
2026-04-26 10:07 50.97564 13.92024 603 ft 79 kts 303°
2026-04-26 10:08 50.97808 13.91289 423 ft 67 kts 301°
2026-04-26 10:08 50.97998 13.90753 415 ft 41 kts 298°
2026-04-26 10:08 50.98041 13.90625 417 ft 0 kts 218°
2026-04-26 10:08 50.98033 13.90625 417 ft 1 kts 147°
2026-04-26 10:09 50.97978 13.90785 415 ft 24 kts 115°
2026-04-26 10:09 50.97913 13.90998 418 ft 19 kts 117°
2026-04-26 10:09 50.97869 13.91166 421 ft 15 kts 120°
2026-04-26 10:09 50.97827 13.91275 423 ft 8 kts 169°
2026-04-26 10:10 50.97817 13.91258 423 ft 2 kts 356°
2026-04-26 10:10 50.97831 13.91248 422 ft 3 kts 298°
2026-04-26 10:15 50.97837 13.91232 423 ft 15 kts 298°
2026-04-26 10:15 50.97978 13.90801 415 ft 70 kts 296°
2026-04-26 10:15 50.98199 13.90065 665 ft 71 kts 299°
2026-04-26 10:15 50.98442 13.89298 828 ft 86 kts 302°
2026-04-26 10:16 50.98314 13.88437 1165 ft 96 kts 216°
2026-04-26 10:16 50.97728 13.88710 1501 ft 100 kts 109°
2026-04-26 10:16 50.97973 13.89547 1802 ft 92 kts
2026-04-26 10:16 50.98501 13.89161 2055 ft 85 kts 319°
2026-04-26 10:17 50.98929 13.88541 1964 ft 81 kts 302°
2026-04-26 10:17 50.98819 13.87772 1895 ft 86 kts 215°
2026-04-26 10:17 50.98218 13.87729 1950 ft 87 kts 183°
2026-04-26 10:17 50.97583 13.88003 2017 ft 107 kts 135°
2026-04-26 10:18 50.97431 13.89159 2026 ft 116 kts 70°
2026-04-26 10:18 50.97856 13.90201 2022 ft 107 kts 29°
2026-04-26 10:18 50.98516 13.90699 2006 ft 104 kts 355°
2026-04-26 10:18 50.99043 13.90111 1986 ft 92 kts 297°
2026-04-26 10:19 50.99449 13.89394 2007 ft 89 kts 320°
2026-04-26 10:19 50.99906 13.88644 1987 ft 98 kts 310°
2026-04-26 10:19 51.00350 13.87848 2001 ft 99 kts 311°
2026-04-26 10:19 51.00829 13.86998 1999 ft 104 kts 311°
2026-04-26 10:20 51.01309 13.86153 1995 ft 103 kts 311°
2026-04-26 10:20 51.01628 13.85592 1997 ft 104 kts 310°
2026-04-26 10:20 51.02305 13.84535 1998 ft 101 kts 317°
2026-04-26 10:20 51.02818 13.83772 1999 ft 102 kts 316°
2026-04-26 10:21 51.03344 13.82994 1991 ft 105 kts 315°
2026-04-26 10:21 51.03836 13.82272 1994 ft 104 kts 317°
2026-04-26 10:21 51.04363 13.81490 1995 ft 102 kts 315°
2026-04-26 10:21 51.04881 13.80738 1993 ft 102 kts 316°
2026-04-26 10:22 51.05409 13.79976 1993 ft 102 kts 316°
2026-04-26 10:22 51.05925 13.79230 1989 ft 99 kts 315°
2026-04-26 10:22 51.06375 13.78584 1996 ft 103 kts 316°
2026-04-26 10:22 51.06917 13.77810 1996 ft 106 kts 316°
2026-04-26 10:23 51.07483 13.77034 1989 ft 108 kts 324°
2026-04-26 10:23 51.08208 13.77041 1892 ft 116 kts 27°
2026-04-26 10:23 51.08832 13.77868 1702 ft 112 kts 27°
2026-04-26 10:23 51.09503 13.78489 1681 ft 106 kts 25°
2026-04-26 10:24 51.10131 13.79083 1673 ft 103 kts 26°
2026-04-26 10:24 51.10731 13.79684 1685 ft 105 kts 27°
2026-04-26 10:24 51.11364 13.80299 1685 ft 107 kts 26°
2026-04-26 10:24 51.11996 13.80914 1694 ft 108 kts 27°
2026-04-26 10:25 51.12660 13.81503 1689 ft 108 kts
2026-04-26 10:25 51.13290 13.81069 1597 ft 101 kts 315°
2026-04-26 10:25 51.13786 13.80314 1360 ft 97 kts 310°
2026-04-26 10:25 51.14210 13.79535 1250 ft 88 kts 307°
2026-04-26 10:26 51.14472 13.78734 1038 ft 81 kts 281°
2026-04-26 10:26 51.14234 13.77930 744 ft 81 kts 230°
2026-04-26 10:26 51.13876 13.77397 707 ft 59 kts 220°
2026-04-26 10:26 51.13488 13.76885 746 ft 86 kts 225°
2026-04-26 10:27 51.13025 13.76279 1000 ft 86 kts 226°
2026-04-26 10:27 51.12553 13.75617 1225 ft 93 kts 230°
2026-04-26 10:27 51.12234 13.74795 1422 ft 86 kts 278°
2026-04-26 10:27 51.12638 13.74161 1546 ft 90 kts 342°
2026-04-26 10:28 51.13257 13.74500 1700 ft 103 kts 27°
2026-04-26 10:28 51.13816 13.75252 1789 ft 108 kts 40°
2026-04-26 10:28 51.14283 13.76204 1864 ft 107 kts 52°
2026-04-26 10:28 51.14531 13.77246 1550 ft 103 kts 95°
2026-04-26 10:29 51.14004 13.77616 1118 ft 91 kts 208°
2026-04-26 10:29 51.13534 13.76944 740 ft 87 kts 234°
2026-04-26 10:29 51.13151 13.76402 704 ft 63 kts 221°
2026-04-26 10:29 51.12853 13.75997 703 ft 51 kts 221°
2026-04-26 10:30 51.12713 13.75838 703 ft 14 kts 174°
2026-04-26 10:30 51.12647 13.75931 705 ft 14 kts 131°
2026-04-26 10:30 51.12601 13.76014 698 ft 0 kts 130°
2026-04-26 10:32 51.12553 13.76105 704 ft 13 kts 131°
2026-04-26 10:32 51.12510 13.76183 705 ft 15 kts 128°
2026-04-26 10:32 51.12486 13.76203 705 ft 0 kts 179°
2026-04-26 10:32 51.12485 13.76202 705 ft 3 kts 185°
2026-04-26 10:33 51.12420 13.76107 705 ft 16 kts 219°
2026-04-26 10:33 51.12354 13.75979 705 ft 12 kts 279°
2026-04-26 10:33 51.12369 13.75939 701 ft 0 kts 312°